[[{"header":{"parameterUnit":"m.s-1","parameterCategory":1,"la1":30.2991,"la2":30.254,"lo1":-89.0895,"lo2":-89.0444,"dy":0.0017,"dx":0.0017,"nx":28,"ny":28,"refTime":"2026-01-07T09:00:00:Z","depth":0,"parameterNumber":2,"parameterNumberName":"U-component_of_WINDS"},"data":[0,0,0,0,0,0,0,0,0,0,0,0,0,0,0,0,0,0,0,0,0,0,0,0,0,0,0,0,0,0,0,0,0,0,0,0,0,0,0,0,0,0,0,0,0,0,0,0,0,0,0,0,0,0,0,0,0,0,-1.3329,-1.3329,0,-1.332,-1.332,-1.332,-1.3306,-1.3305,-1.3305,-1.3305,-1.3296,-1.3296,-1.3296,0,0,0,0,0,0,0,0,0,0,0,0,0,-1.3335,-1.3335,-1.3329,-1.3329,-1.3329,-1.332,-1.332,-1.332,-1.3306,-1.3305,-1.3305,-1.3305,-1.3296,-1.3296,-1.3296,0,0,0,0,0,0,0,0,0,0,0,0,0,-1.333,-1.3335,-1.3329,-1.3321,-1.332,-1.332,-1.332,-1.332,-1.3306,-1.3305,-1.3305,-1.3305,-1.3296,-1.3296,-1.3296,-1.3304,0,0,-1.3296,-1.3296,0,0,0,0,0,0,0,0,-1.333,-1.333,-1.3322,-1.3321,-1.332,-1.3314,-1.3319,-1.3315,-1.3306,-1.3311,-1.3305,-1.3304,-1.3302,-1.3302,-1.3301,-1.3304,-1.3304,-1.3296,-1.3296,-1.3296,-1.3296,0,0,0,0,0,0,0,-1.333,-1.333,-1.3326,-1.3322,-1.3321,-1.3318,-1.3317,-1.3318,-1.3309,-1.3311,-1.331,-1.3309,-1.3302,-1.3301,-1.3301,-1.3303,-1.3296,-1.3296,-1.3296,-1.3296,-1.3313,-1.3313,0,0,0,0,0,0,-1.3332,-1.333,-1.3326,-1.3326,-1.3324,-1.3318,-1.3317,-1.3316,-1.3309,-1.3308,-1.3309,-1.3308,-1.3301,-1.3301,-1.33,-1.3309,-1.3296,-1.3296,-1.3296,-1.3312,-1.3313,-1.3313,0,0,0,0,0,0,-1.3332,-1.3332,-1.3326,-1.3328,-1.3327,-1.3318,-1.3318,-1.3316,-1.3316,-1.3308,-1.3306,-1.331,-1.3301,-1.33,-1.3303,-1.3309,-1.3296,-1.3296,-1.3312,-1.3313,-1.3313,-1.3327,0,0,0,0,0,0,-1.3332,-1.3332,-1.3335,-1.3328,-1.3327,-1.3329,-1.3318,-1.3316,-1.3316,-1.3314,-1.3308,-1.3307,-1.33,-1.3303,-1.3303,-1.3308,-1.3296,-1.3311,-1.3312,-1.3313,-1.3326,-1.3328,-1.333,0,0,0,0,0,-1.3333,-1.3339,-1.3335,-1.3334,-1.333,-1.333,-1.3329,-1.3322,-1.3316,-1.3319,-1.3314,-1.3307,-1.3308,-1.3304,-1.3304,-1.3309,-1.3311,-1.3312,-1.3313,-1.3325,-1.3328,-1.333,0,0,0,0,0,0,-1.3347,-1.3338,-1.3333,-1.3338,-1.3335,-1.3327,-1.3331,-1.3325,-1.3323,-1.3322,-1.3313,-1.3312,-1.3316,-1.3313,-1.3308,-1.3317,-1.3309,-1.331,-1.3318,-1.332,-1.3322,-1.3322,-1.3296,0,0,0,0,0,-1.335,-1.3351,-1.3343,-1.3348,-1.3347,-1.3339,-1.3339,-1.3333,-1.333,-1.3328,-1.3324,-1.3321,-1.332,-1.332,-1.332,-1.3326,-1.3324,-1.333,-1.3332,-1.3333,-1.3334,-1.3337,-1.3339,-1.3316,-1.3316,-1.3316,0,0,-1.3358,-1.3353,-1.3354,-1.3351,-1.3348,-1.3348,-1.3338,-1.3339,-1.334,-1.3329,-1.3331,-1.3328,-1.3324,-1.3329,-1.333,-1.3326,-1.334,-1.3334,-1.3336,-1.3335,-1.3338,-1.334,-1.3342,-1.3317,-1.3317,-1.3317,0,0,-1.3372,-1.3368,-1.3372,-1.3369,-1.3364,-1.3359,-1.336,-1.3354,-1.3351,-1.3354,-1.3346,-1.3346,-1.3346,-1.3344,-1.3342,-1.3356,-1.335,-1.3356,-1.3366,-1.3369,-1.3371,-1.3372,-1.3376,-1.3378,-1.3357,-1.3357,-1.3357,0,-1.3381,-1.3382,-1.3374,-1.3376,-1.3375,-1.3365,-1.3368,-1.3366,-1.3362,-1.3361,-1.3357,-1.3357,-1.3353,-1.3357,-1.3361,-1.336,-1.3361,-1.3356,-1.3371,-1.3372,-1.3374,-1.3378,-1.3379,-1.3358,-1.3358,-1.3358,-1.3358,0,-1.3394,-1.3395,-1.3398,-1.3394,-1.3393,-1.3396,-1.3389,-1.3389,-1.3384,-1.338,-1.3382,-1.3378,-1.3377,-1.3377,-1.3372,-1.3381,-1.3378,-1.3373,-1.3364,-1.3377,-1.338,-1.3382,-1.3359,-1.3359,-1.3359,-1.3359,0,0,-1.3415,-1.3407,-1.3409,-1.3407,-1.3401,-1.3402,-1.3404,-1.3403,-1.3403,-1.3401,-1.3402,-1.3403,-1.3398,-1.3396,-1.3391,-1.3394,-1.3405,-1.3388,-1.3388,-1.339,-1.3413,-1.3417,-1.3418,-1.3401,-1.3401,-1.3401,-1.3413,0,-1.3427,-1.343,-1.3424,-1.3429,-1.3429,-1.342,-1.3422,-1.342,-1.3416,-1.3416,-1.3412,-1.3412,-1.3406,-1.3405,-1.3407,-1.3403,-1.3409,-1.3402,-1.3402,-1.3402,-1.3402,-1.342,-1.3424,-1.3435,-1.3414,-1.3415,-1.3415,0,-1.3441,-1.344,-1.3444,-1.3439,-1.3439,-1.3441,-1.3439,-1.3439,-1.3436,-1.3433,-1.3432,-1.3426,-1.3428,-1.3421,-1.3424,-1.342,-1.342,-1.3418,-1.3418,-1.3417,-1.3408,-1.3419,-1.3439,-1.344,-1.3417,-1.3417,-1.3417,0,-1.3456,-1.3455,-1.3457,-1.3456,-1.345,-1.3452,-1.3449,-1.3446,-1.3445,-1.3444,-1.3443,-1.3442,-1.3442,-1.3441,-1.3435,-1.3431,-1.3439,-1.3431,-1.3436,-1.3436,-1.3437,-1.3437,-1.3457,-1.3439,-1.3439,-1.3439,-1.3439,0,-1.3469,-1.3472,-1.3464,-1.3465,-1.3469,-1.3461,-1.3465,-1.3462,-1.3459,-1.346,-1.3453,-1.3454,-1.3446,-1.3447,-1.3443,-1.3445,-1.3445,-1.3443,-1.3442,-1.3443,-1.3443,-1.3442,-1.3441,-1.3439,-1.3439,-1.3439,-1.3439,0,-1.3485,-1.348,-1.3482,-1.3476,-1.3475,-1.3478,-1.3473,-1.3474,-1.347,-1.3472,-1.3471,-1.3465,-1.3465,-1.346,-1.3459,-1.3456,-1.3461,-1.3458,-1.3462,-1.346,-1.3466,-1.3465,-1.3484,-1.3486,-1.3468,-1.3468,-1.3468,0,-1.3494,-1.3496,-1.3491,-1.3491,-1.3489,-1.3489,-1.3488,-1.3482,-1.3481,-1.3478,-1.348,-1.348,-1.3479,-1.3479,-1.3475,-1.3474,-1.3472,-1.3478,-1.3471,-1.3473,-1.3471,-1.347,-1.347,-1.348,-1.348,-1.348,-1.348,0,-1.3509,-1.3507,-1.3506,-1.3504,-1.3504,-1.3502,-1.3501,-1.3501,-1.3494,-1.3494,-1.3494,-1.3493,-1.3493,-1.3492,-1.3491,-1.3489,-1.3483,-1.3483,-1.3484,-1.3485,-1.3486,-1.3485,-1.3465,-1.3482,-1.3482,-1.3482,-1.3481,-1.3481,-1.3522,-1.3523,-1.3519,-1.3519,-1.3517,-1.3515,-1.3516,-1.3513,-1.3512,-1.3511,-1.3507,-1.3508,-1.3505,-1.3503,-1.3501,-1.3501,-1.3498,-1.35,-1.35,-1.35,-1.3501,-1.3487,-1.3501,-1.3501,-1.3501,-1.3501,-1.3501,0,-1.3536,-1.3534,-1.3533,-1.3531,-1.3531,-1.3526,-1.3523,-1.3524,-1.3524,-1.3522,-1.3521,-1.3521,-1.3521,-1.3517,-1.3516,-1.3517,-1.3515,-1.3517,-1.3517,-1.3516,-1.3504,-1.3503,-1.3519,-1.3519,-1.3519,-1.3519,-1.3519,-1.3519,-1.3544,-1.3546,-1.3543,-1.3544,-1.3541,-1.3542,-1.3541,-1.3539,-1.3537,-1.3538,-1.3537,-1.3535,-1.3532,-1.3531,-1.353,-1.3529,-1.3529,-1.3532,-1.353,-1.3519,-1.3517,-1.3515,-1.3514,-1.3532,-1.3533,-1.3542,-1.3542,-1.3542]},{"header":{"parameterUnit":"m.s-1","parameterCategory":1,"la1":30.2991,"la2":30.254,"lo1":-89.0895,"lo2":-89.0444,"dy":0.0017,"dx":0.0017,"nx":28,"ny":28,"refTime":"2026-01-07T09:00:00:Z","depth":0,"parameterNumber":3,"parameterNumberName":"V-component_of_WINDS"},"data":[0,0,0,0,0,0,0,0,0,0,0,0,0,0,0,0,0,0,0,0,0,0,0,0,0,0,0,0,0,0,0,0,0,0,0,0,0,0,0,0,0,0,0,0,0,0,0,0,0,0,0,0,0,0,0,0,0,0,3.2609,3.2609,0,3.2612,3.2612,3.2612,3.2609,3.2609,3.2609,3.2609,3.2609,3.2609,3.2609,0,0,0,0,0,0,0,0,0,0,0,0,0,3.2601,3.2601,3.2609,3.2609,3.2609,3.2612,3.2612,3.2612,3.2609,3.2609,3.2609,3.2609,3.2609,3.2609,3.2609,0,0,0,0,0,0,0,0,0,0,0,0,0,3.2604,3.2601,3.2609,3.2608,3.2608,3.2612,3.2612,3.2612,3.2609,3.2609,3.2609,3.2609,3.2609,3.2609,3.2609,3.2614,0,0,3.261,3.261,0,0,0,0,0,0,0,0,3.2604,3.2605,3.2608,3.2608,3.2608,3.261,3.2609,3.2613,3.2609,3.2609,3.2609,3.2609,3.2609,3.261,3.261,3.2614,3.2614,3.261,3.261,3.261,3.261,0,0,0,0,0,0,0,3.2604,3.2604,3.261,3.2608,3.2608,3.2608,3.2608,3.261,3.261,3.2609,3.2609,3.2609,3.2609,3.261,3.261,3.2614,3.261,3.261,3.261,3.261,3.2624,3.2624,0,0,0,0,0,0,3.2604,3.2604,3.261,3.261,3.2606,3.2608,3.2608,3.261,3.261,3.261,3.2609,3.2609,3.261,3.261,3.261,3.2618,3.261,3.261,3.261,3.2624,3.2624,3.2624,0,0,0,0,0,0,3.2604,3.2604,3.261,3.2607,3.2608,3.2608,3.261,3.261,3.2611,3.261,3.261,3.261,3.261,3.261,3.2614,3.2617,3.261,3.2611,3.2623,3.2624,3.2624,3.2631,0,0,0,0,0,0,3.2604,3.2604,3.2606,3.2607,3.2608,3.2614,3.261,3.261,3.2611,3.2611,3.2611,3.2611,3.261,3.2614,3.2614,3.2618,3.2611,3.2623,3.2624,3.2624,3.263,3.2631,3.2632,0,0,0,0,0,3.2603,3.2606,3.2606,3.2607,3.261,3.2614,3.2614,3.2614,3.2612,3.2613,3.2614,3.2611,3.2617,3.2614,3.2614,3.2618,3.2623,3.2624,3.2624,3.263,3.2631,3.2632,0,0,0,0,0,0,3.2603,3.2606,3.2606,3.261,3.2612,3.2613,3.2615,3.2615,3.2616,3.2616,3.2614,3.2614,3.2619,3.2619,3.2615,3.2624,3.262,3.262,3.2624,3.2625,3.2626,3.2626,3.2611,0,0,0,0,0,3.2604,3.2607,3.2609,3.2613,3.2614,3.2615,3.2616,3.2616,3.2617,3.2618,3.2618,3.2619,3.2622,3.2623,3.2625,3.263,3.2631,3.2633,3.2634,3.2635,3.2636,3.2641,3.2643,3.2626,3.2626,3.2626,0,0,3.2605,3.2607,3.2609,3.2613,3.2614,3.2618,3.2615,3.2618,3.2621,3.2618,3.2622,3.2623,3.2624,3.2629,3.2632,3.2629,3.2641,3.2636,3.2637,3.2637,3.2642,3.2643,3.2645,3.2627,3.2627,3.2627,0,0,3.2609,3.261,3.2614,3.2617,3.262,3.2621,3.2622,3.2625,3.2625,3.263,3.2629,3.2632,3.2635,3.2638,3.2639,3.2648,3.2646,3.2648,3.2653,3.2659,3.266,3.2661,3.2666,3.2667,3.2649,3.2649,3.2649,0,3.2609,3.2615,3.2616,3.2621,3.2623,3.2623,3.2627,3.2629,3.2632,3.2634,3.2632,3.2639,3.264,3.2647,3.2649,3.265,3.2652,3.2648,3.266,3.2661,3.2662,3.2667,3.2668,3.2649,3.2649,3.2649,3.2649,0,3.2617,3.2621,3.2624,3.2629,3.2632,3.2636,3.2639,3.2641,3.2642,3.2643,3.2649,3.2651,3.2654,3.2656,3.2655,3.2664,3.2662,3.266,3.2656,3.2664,3.2668,3.267,3.265,3.265,3.2649,3.2649,0,0,3.2619,3.2627,3.2628,3.2632,3.2637,3.264,3.2646,3.2651,3.2654,3.2657,3.2662,3.2667,3.2666,3.2668,3.2668,3.2672,3.2681,3.2669,3.2669,3.2673,3.2693,3.2696,3.2698,3.2681,3.2681,3.2681,3.2694,0,3.2624,3.2634,3.2637,3.2645,3.2651,3.2652,3.2657,3.2661,3.2663,3.2668,3.267,3.2674,3.2671,3.2673,3.2677,3.2679,3.2686,3.2678,3.2686,3.2686,3.2686,3.27,3.2701,3.2713,3.2695,3.2695,3.2696,0,3.2631,3.2637,3.2647,3.2654,3.2656,3.2661,3.2667,3.2671,3.2677,3.2678,3.2682,3.2682,3.2689,3.2685,3.2694,3.269,3.2693,3.2695,3.2695,3.2696,3.2692,3.2702,3.2716,3.2719,3.2698,3.2698,3.2698,0,3.2634,3.2643,3.2651,3.2654,3.2663,3.2666,3.267,3.2675,3.2679,3.2684,3.2687,3.2693,3.2696,3.2701,3.2704,3.27,3.2714,3.2709,3.2716,3.2716,3.2719,3.2718,3.2735,3.272,3.2719,3.2719,3.2719,0,3.264,3.2646,3.2653,3.2658,3.2666,3.2669,3.2677,3.268,3.2686,3.2692,3.2693,3.2698,3.2701,3.2707,3.2709,3.2718,3.2719,3.2721,3.2721,3.2721,3.2721,3.2724,3.2723,3.272,3.272,3.272,3.272,0,3.2643,3.2648,3.2657,3.2666,3.2668,3.2674,3.2681,3.2686,3.269,3.2698,3.27,3.2705,3.2713,3.2716,3.2724,3.2726,3.2737,3.2736,3.2735,3.2736,3.2743,3.2743,3.2762,3.2766,3.2747,3.2747,3.2747,0,3.2647,3.2652,3.2662,3.2667,3.2672,3.2679,3.2684,3.2688,3.2693,3.2702,3.2707,3.2715,3.2722,3.2734,3.2739,3.2746,3.2747,3.2753,3.2747,3.2748,3.2748,3.2749,3.275,3.2754,3.2754,3.2754,3.2754,0,3.2653,3.2657,3.2664,3.2674,3.268,3.2687,3.2694,3.2698,3.2704,3.271,3.2719,3.2725,3.2735,3.2744,3.2753,3.2756,3.2757,3.2756,3.2759,3.2759,3.2759,3.2761,3.2739,3.2756,3.2755,3.2755,3.2755,3.2755,3.2658,3.2664,3.2673,3.2682,3.2689,3.2696,3.2703,3.2708,3.2716,3.2726,3.2728,3.2739,3.2746,3.2758,3.2763,3.2771,3.2769,3.2772,3.2773,3.2774,3.2775,3.2757,3.2772,3.2772,3.2772,3.2772,3.2772,0,3.2666,3.2673,3.2681,3.2693,3.2701,3.2702,3.2711,3.2717,3.2727,3.2734,3.2742,3.2754,3.2763,3.277,3.278,3.2785,3.2786,3.2788,3.2788,3.2789,3.2775,3.2773,3.2787,3.2787,3.2787,3.2787,3.2787,3.2787,3.2671,3.2682,3.2687,3.2702,3.2709,3.272,3.2725,3.2732,3.2739,3.2753,3.2761,3.2766,3.2774,3.2785,3.2794,3.2796,3.28,3.2802,3.2804,3.2791,3.279,3.2788,3.2786,3.2803,3.2803,3.2818,3.2818,3.2818]}]]